千帆星座-32 (QIANFAN-32)

导读

QIANFAN-32 是中国北斗卫星导航系统的重要组成部分,属于北斗三号系列卫星之一。该卫星由中国自主研发,主要用于提供高精度定位、导航和授时服务,增强北斗系统在全球范围内的覆盖与稳定性。QIANFAN-32 采用先进技术和高可靠设计,支持多种信号体制,可广泛应用于交通运输、农业、通信、应急救援等领域,对提升国家空间信息能力具有重要意义。

Basic Information
目录编号:
61565
目录名称:
QIANFAN-32
国际标识:
2024-185P
轨道中心:
EARTH
卫星名称:
千帆星座-32
卫星全名:
千帆星座-32 (QIANFAN-32)
卫星状态:
在轨 (已飞行696 天)
发射日期:
2024-10-15 UTC
国别 :
中国 (CN)
星等 :
--
This satellite is enrolled in the Space Conjunction Data Service (SCDS) and the current flight risk assessment level is: No High Risk
Orbit Information
数据来源 国际轨道数据 AOE轨道数据
星历时间 2026-09-11T14:43:59+0800
9小时前
查看轨道信息
2026-09-10T16:00:00+0800
1天前
查看轨道信息
半长轴 7447.437km 7447.435km
偏心率 0.000976 0.0009762
轨道倾角 88.985° 88.985°
近地点辐角 11.478° 13.729°
升交点赤经 52.981° 53.078°
平近点角 348.659° 62.932°
近地点 1062.031km 1062.027km
远地点 1076.569km 1076.569km
周期 106.603分钟 106.603分钟
每日圈数 13.508047 13.508051
Detailed Information
卫星平台:
32
覆盖范围:
全球
运营商:
上海垣信卫星科技有限公司
运营商所在国:
中国
使用方式:
暂无
Satellite Introduction
千帆星座,也被称为“G60星链”计划,是中国版“星链”的重要组成部分,旨在打造一个由1.4万多颗低轨宽频多媒体卫星构成的庞大星座。千帆星座计划由上海垣信卫星科技有限公司负责实施,于2023年启动建设。该项目是我国第二个低轨卫星大星座,旨在通过构建庞大的卫星网络,为全球用户提供高质量的通信和宽带互联网服务。
2D Orbit Map
3D Orbit Map
Orbit Altitude Analysis Chart
Orbit Inclination Analysis Chart
Orbit Comprehensive Analysis Chart
View Comprehensive Chart
Conjunction Data List
Event ID Objects TCA Miss Dist (km) Collision Risk Probability Collision Risk Index (CRI) Action
CDM_260904-234903-789106-156524
2026-09-04T
23:49:44+0000
0.328 km
远距离
4.44927E-4 高风险 0.88
CDM_260913-063103-007606-156523
2026-09-13T
06:31:27+0000
1.968 km
极远距离
2.945684E-6 低风险 0.44
Miss Distance Evolution Trend with All Objects
Collision Probability Evolution Trend with All Objects